TimeCST,TemperatureF,Dew PointF,Humidity,Sea Level PressureIn,VisibilityMPH,Wind Direction,Wind SpeedMPH,Gust SpeedMPH,PrecipitationIn,Events,Conditions,WindDirDegrees,DateUTC
12:15 AM,50.0,28.4,43,30.39,10.0,Calm,Calm,-,N/A,,Overcast,0,2012-11-14 06:15:00
12:35 AM,48.2,32.0,54,30.39,10.0,Calm,Calm,-,N/A,,Overcast,0,2012-11-14 06:35:00
12:55 AM,48.2,30.2,50,30.39,10.0,Calm,Calm,-,N/A,,Overcast,0,2012-11-14 06:55:00
1:15 AM,48.2,30.2,50,30.39,10.0,Calm,Calm,-,N/A,,Overcast,0,2012-11-14 07:15:00
1:35 AM,46.4,30.2,53,30.40,10.0,Calm,Calm,-,N/A,,Overcast,0,2012-11-14 07:35:00
1:55 AM,46.4,30.2,53,30.40,10.0,Calm,Calm,-,N/A,,Overcast,0,2012-11-14 07:55:00
2:15 AM,44.6,32.0,61,30.40,10.0,Calm,Calm,-,N/A,,Overcast,0,2012-11-14 08:15:00
2:35 AM,46.4,30.2,53,30.40,10.0,Calm,Calm,-,N/A,,Overcast,0,2012-11-14 08:35:00
2:55 AM,44.6,32.0,61,30.40,10.0,Calm,Calm,-,N/A,,Overcast,0,2012-11-14 08:55:00
3:15 AM,41.0,32.0,70,30.40,10.0,Calm,Calm,-,N/A,,Scattered Clouds,0,2012-11-14 09:15:00
3:35 AM,37.4,32.0,81,30.40,10.0,Calm,Calm,-,N/A,,Clear,0,2012-11-14 09:35:00
3:55 AM,37.4,32.0,81,30.39,10.0,Calm,Calm,-,N/A,,Clear,0,2012-11-14 09:55:00
4:15 AM,37.4,32.0,81,30.39,10.0,Calm,Calm,-,N/A,,Clear,0,2012-11-14 10:15:00
4:35 AM,35.6,30.2,81,30.39,10.0,Calm,Calm,-,N/A,,Clear,0,2012-11-14 10:35:00
4:55 AM,33.8,30.2,87,30.39,10.0,Calm,Calm,-,N/A,,Clear,0,2012-11-14 10:55:00
5:15 AM,33.8,30.2,87,30.39,10.0,Calm,Calm,-,N/A,,Clear,0,2012-11-14 11:15:00
6:50 AM,33.8,30.2,87,30.41,10.0,Calm,Calm,-,N/A,,Clear,0,2012-11-14 12:50:00
7:49 AM,33.8,30.2,87,30.42,10.0,Calm,Calm,-,N/A,,Clear,0,2012-11-14 13:49:00
8:49 AM,46.4,33.8,62,30.44,10.0,Calm,Calm,-,N/A,,Clear,0,2012-11-14 14:49:00
9:53 AM,55.4,26.6,33,30.45,10.0,SSW,5.8,-,N/A,,Clear,200,2012-11-14 15:53:00
10:58 AM,57.2,24.8,29,30.44,10.0,Calm,Calm,-,N/A,,Clear,0,2012-11-14 16:58:00
11:58 AM,57.2,24.8,29,30.41,10.0,SW,4.6,-,N/A,,Clear,230,2012-11-14 17:58:00
12:57 PM,60.8,24.8,25,30.38,10.0,Calm,Calm,-,N/A,,Clear,0,2012-11-14 18:57:00
1:50 PM,60.8,24.8,25,30.35,10.0,Calm,Calm,-,N/A,,Clear,0,2012-11-14 19:50:00
2:56 PM,62.6,24.8,24,30.33,10.0,Calm,Calm,-,N/A,,Clear,0,2012-11-14 20:56:00
3:48 PM,62.6,24.8,24,30.32,10.0,Calm,Calm,-,N/A,,Clear,0,2012-11-14 21:48:00
4:46 PM,60.8,24.8,25,30.30,10.0,East,5.8,-,N/A,,Clear,90,2012-11-14 22:46:00
5:46 PM,55.4,24.8,31,30.30,10.0,East,5.8,-,N/A,,Clear,100,2012-11-14 23:46:00
6:46 PM,50.0,28.4,43,30.20,10.0,ESE,6.9,-,N/A,,Clear,120,2012-11-15 00:46:00
6:55 PM,48.2,28.4,46,30.32,10.0,ESE,4.6,-,N/A,,Clear,120,2012-11-15 00:55:00
7:15 PM,44.6,30.2,57,30.32,10.0,Calm,Calm,-,N/A,,Clear,0,2012-11-15 01:15:00
7:35 PM,42.8,30.2,61,30.32,10.0,SSE,3.5,-,N/A,,Clear,150,2012-11-15 01:35:00
7:55 PM,42.8,30.2,61,30.31,10.0,SE,3.5,-,N/A,,Clear,140,2012-11-15 01:55:00
8:55 PM,44.6,30.2,57,30.32,10.0,Calm,Calm,-,N/A,,Clear,0,2012-11-15 02:55:00
9:15 PM,42.8,28.4,57,30.32,10.0,SE,4.6,-,N/A,,Clear,140,2012-11-15 03:15:00
9:35 PM,42.8,28.4,57,30.32,10.0,SSE,4.6,-,N/A,,Clear,150,2012-11-15 03:35:00
9:55 PM,42.8,30.2,61,30.31,10.0,SSE,5.8,-,N/A,,Clear,150,2012-11-15 03:55:00
10:15 PM,44.6,30.2,57,30.31,10.0,SSE,5.8,-,N/A,,Clear,150,2012-11-15 04:15:00
10:35 PM,42.8,30.2,61,30.31,10.0,SSE,5.8,-,N/A,,Clear,150,2012-11-15 04:35:00
10:55 PM,42.8,30.2,61,30.31,10.0,SSE,4.6,-,N/A,,Clear,150,2012-11-15 04:55:00
11:15 PM,42.8,30.2,61,30.31,10.0,SSE,3.5,-,N/A,,Clear,150,2012-11-15 05:15:00
11:35 PM,42.8,30.2,61,30.31,10.0,Calm,Calm,-,N/A,,Clear,0,2012-11-15 05:35:00
11:55 PM,42.8,30.2,61,30.30,10.0,SSE,3.5,-,N/A,,Clear,150,2012-11-15 05:55:00